www.pogodaiklimat.ru

Погода и климат >> Архив погоды >> Китай >> Хэбэй >> Фэннин


ПОГОДА в Фэннине

  • Прогноз погоды в Фэннине
  • Монитор погоды в Фэннине

АРХИВ ПОГОДЫ в Фэннине

Время (UTC), дата Ветер
(напр.,м/с)
 
Видим.   Явления Облачность Т
(С)
Тd
(С)
f
(%)
Тe
(С)
Тes
(С)
Комфортность P
(гПа)
Po
(гПа)
Тmin
(С)
Tmax
(С)
R
(мм)
R24
(мм)
S
(см)
18 14.09 С 1 30 км ясно +10.4 +8.2 86 +10 +10 1015.8 938.0 +25.9
21 14.09 З 1 30 км 8/8
[]
+10.2 +7.8 85 +10 +10 1015.9 938.1
00 15.09 С 1 30 км 9/9
[]
+11.4 +9.1 86 +11 +11 1015.4 931.1
03 15.09 С 1 30 км 9/9
[]
+19.3 +11.1 59 +21 +23 комфорт 1014.2 938.8
06 15.09 В 5 30 км 8/8 1000 м
[]
+22.9 +11.6 49 +25 +26 комфорт 1011.5 927.9 +9.8
09 15.09 С 1 30 км 5/5 1000 м
[]
+23.8 +6.1 32 +24 +25 комфорт 1011.9 937.8
12 15.09 С 1 26 км ясно +17.2 +5.5 46 +18 +18 1015.5 939.5
18 15.09 СЗ 1 30 км ясно +7.9 +5.2 83 +7 +7 1018.3 939.7 +24.6
21 15.09 штиль 0 30 км ясно +5.9 +3.7 86 +5 +5 1019.5 940.2
00 16.09 СЗ 1 30 км ясно +9.2 +3.8 69 +9 +12 1021.3 942.8
03 16.09 С 1 30 км ясно +20.3 +2.6 31 +22 +35 комфорт 1019.4 943.9
06 16.09 В 4 30 км 3/3 1000 м
[]
+22.8 +5.7 33 +23 +28 комфорт 1016.9 942.2 +5.1
09 16.09 ЮВ 3 30 км 4/4 1000 м
[]
+22.2 +6.8 37 +23 +24 комфорт 1016.5 941.7
12 16.09 Ю 5 30 км ясно +18.3 +8.6 53 +18 +18 1018.1 942.2
18 16.09 С 2 30 км ?/? +9.2 +7.5 89 +7 +7 1018.3 940.0 +24.3
21 16.09 С 2 21 км н/о +7.7 +6.8 94 +6 +6 1018.7 940.0
00 17.09 СЗ 2 21 км 4/4
[]
+10.3 +8.1 86 +9 +10 1019.0 940.9
03 17.09 В 3 30 км 3/3
[]
+20.2 +11.2 56 +22 +29 комфорт 1017.3 941.9
06 17.09 С 10
{18}
30 км 5/5 1000 м
[]
+25.9 +1.9 21 +24 +25 комфорт 1014.7 940.9 +7.5
09 17.09 СЗ 9 30 км ясно +23.5 -0.1 21 +22 +23 комфорт 1017.4 942.8
12 17.09 С 5
{20}
30 км ясно +18.2 -1.1 27 +18 +18 1021.5 945.3
18 17.09 СЗ 4 30 км ?/? +11.2 -4.5 33 +9 +9 1024.7 946.4 +26.1
21 17.09 В 1 30 км н/о +7.5 -2.5 49 +7 +7 1027.0 947.6
00 18.09 С 1 30 км ясно +8.4 -2.0 48 +8 +11 1030.0 943.9
03 18.09 С 1 30 км ясно +18.3 -2.1 25 +19 +33 опасность
простуды
1028.1 951.4
06 18.09 ЮВ 3 30 км ясно +22.3 +1.3 25 +22 +30 комфорт 1024.3 948.9 +5.4
09 18.09 Ю 5 30 км ясно +21.6 +0.2 24 +21 +22 комфорт 1023.3 947.8
12 18.09 ЮВ 1 30 км ясно +14.9 +4.3 49 +16 +16 1025.2 947.9
18 18.09 С 2 30 км ?/? +7.2 +4.2 81 +5 +5 1024.1 944.8 +23.2
21 18.09 штиль 0 30 км н/о +6.6 +4.4 86 +6 +6 1024.1 944.7
00 19.09 СЗ 2 30 км 9/9
[]
+8.2 +5.5 83 +6 +6 1024.2 938.1
03 19.09 В 1 30 км 8/8
[]
+14.9 +5.1 52 +16 +18 1022.4 945.3
06 19.09 В 7 30 км 6/6
[]
+20.3 +7.7 44 +21 +22 комфорт 1018.7 943.2 +6.5
09 19.09 ЮВ 4 30 км 8/8
[]
+19.6 +9.8 53 +21 +21 комфорт 1018.1 942.5
12 19.09 ЮВ 4 30 км 4/4
[]
+15.6 +9.1 65 +15 +15 1019.5 942.8
18 19.09 штиль 0 21 км ?/? +8.8 +7.7 93 +8 +8 1019.0 940.5 +20.7
21 19.09 С 1 15 км н/о +8.3 +7.4 94 +7 +7 1019.2 940.6
00 20.09 штиль 0 19 км 9/9
[]
+10.6 +8.5 87 +10 +10 1020.0 941.9
06 20.09 С 3 30 км 5/5 1000 м
[]
+27.3 +8.2 30 +27 +31 жарко 1016.0 942.4 +7.9
09 20.09 СЗ 4 30 км 9/9 1000 м
[]
+23.3 +6.6 34 +24 +24 комфорт 1017.7 943.0
12 20.09 штиль 0 30 км 6/6 1000 м
[]
+18.7 +8.7 52 +19 +19 1019.8 934.9
18 20.09 штиль 0 30 км ?/? +10.6 +7.5 81 +10 +10 1021.1 943.0 +28.1
21 20.09 штиль 0 30 км н/о +9.0 +6.3 83 +8 +8 1022.6 943.9
00 21.09 штиль 0 30 км ясно +12.2 +6.9 70 +12 +15 1024.4 939.4
03 21.09 В 3 30 км 1/1 1000 м
[]
+24.2 +6.9 33 +24 +33 комфорт 1022.7 947.9
06 21.09 В 3 30 км 3/3 1000 м
[]
+26.6 +6.1 27 +26 +32 жарко 1020.9 946.8 +8.3
09 21.09 Ю 4 30 км 3/3 1000 м
[]
+23.4 +7.1 35 +24 +25 комфорт 1021.9 946.9
12 21.09 СЗ 1 30 км 3/3 1000 м
[]
+18.8 +8.5 51 +20 +20 1023.5 947.3

 

Местоположение метеостанции Фэннин (Хэбэй, Китай): широта 41.22 долгота 116.63 высота над уровнем моря 661 м.

В архиве по умолчанию представлена погода в Фэннине за последнюю неделю. Архивные данные за месяц целиком и за предыдущие месяцы, начиная с января 2011 года, Вы можете получить, выбрав интересующий диапазон дат из раскрывающегося списка и нажав кнопку "Ввод!".


*Определитесь, кто Вы:
робот инопланетянин человек

Внимание! Время в таблицах - всемирное. Для получения местного времени необходимо прибавить поправку, которая равна 8 ч.

Смотрите также архив погоды в соседних городах и на ближайших метеорологических станциях:

Погода в Долуне (Внутренняя Монголия, Китай) (108 км)
Погода в Чэндэ (Хэбэй, Китай) (114 км)
Погода в Вэйчане (Хэбэй, Китай) (122 км)
Погода в Хуайлае (Хэбэй, Китай) (132 км)
Погода в Пекине (город Пекин, Китай) (146 км)
Погода в Чжанцзякоу (Хэбэй, Китай) (155 км)
Погода в Таншане (Хэбэй, Китай) (215 км)
Погода в Цинлуне (Хэбэй, Китай) (216 км)
Погода в Чифэне (Внутренняя Монголия, Китай) (226 км)
Погода в Хуадэ (Внутренняя Монголия, Китай) (232 км)

Пояснения к столбцам:

Ветер - указаны скорость ветра в м/с - средняя за 10 мин, порывы в срок и между сроками (в фигурных скобках) и направление, откуда дует ветер: С - северный, СВ - северо-восточный, В - восточный, ЮВ - юго-восточный, Ю - южный, ЮЗ - юго-западный, З - западный, СЗ - северо-западный.
Видимость - горизонтальная дальность видимости в метрах или километрах. При видимости от 1 до 10 км при отсутствии осадков обычно наблюдается дымка, при ухудшении видимости до 1 км и менее - туман. В сухую погоду видимость может ухудшаться дымом, пылью или мглою.
Явления - указаны атмосферные явления, наблюдавшиеся в срок или в последний час перед сроком; фигурными скобками обозначены явления, наблюдавшиеся между сроками (за 1-3 часа до срока); квадратными скобками обозначены град или гололедные отложения с указанием их диаметра в мм.
Облачность - указаны через наклонную черту общая и нижняя облачность в баллах и высота нижней границы облаков в метрах; квадратными скобками обозначены формы облаков: Ci - перистые, Cs - перисто-слоистые, Cc - перисто-кучевые, Ac - высококучевые, As - высокослоистые, Sc - слоисто-кучевые, Ns - слоисто-дождевые, Cu - кучевые, Cb - кучево-дождевые. Подробнее классификацию облаков см. в Атласе облаков (PDF).
T - Температура воздуха - температура, измеренная на высоте 2 м над землей.
Td - Температура точки росы - температура, при понижении до которой содержащийся в воздухе водяной пар достигнет насыщения.
f - Относительная влажность воздуха - влажноcть воздуха, измеренная на высоте 2 м над землей.
Te - Эффективная температура - температура, которую ощущает одетый по сезону человек в тени. Характеристика душности погоды. При расчете учитывается влияние влажности воздуха и скорости ветра на теплоощущения человека.
Tes - Эффективная температура на солнце - температура, которую ощущает человек, с поправкой на солнечный нагрев. Характеристика знойности погоды. Зависит от высоты солнца над горизонтом, облачности и скорости ветра. Ночью, в пасмурную погоду, а также при ветре 12 м/с и более поправка равна нулю.
P - Атмосферное давление - приведенное к уровню моря атмосферное давление.
Po - Атмосферное давление - измеренное на уровне метеостанции атмосферное давление.
Tmin - Минимальная температура - минимум температуры воздуха на высоте 2 м над землей.
Tmax - Максимальная температура - максимум температуры воздуха на высоте 2 м над землей.
R - Количество осадков - Количество выпавших осадков за период времени, мм. При наведении курсора мыши на число - период времени, за который выпало указанное количество осадков.
R24 - Количество осадков - Количество выпавших осадков за 24 часа, мм.
S - Снежный покров - Высота снежного покрова, см. При наведении курсора мыши на число - состояние снежного покрова и степень покрытия местности в баллах.